Year,Month,Day,Hour,Minute,Value (Times are PST for temperature in C)
2015,04,19,10,04,14.70
2015,04,19,10,05,14.70
2015,04,19,10,06,14.70
2015,04,19,10,07,14.80
2015,04,19,10,08,14.80
2015,04,19,10,09,14.90
2015,04,19,10,10,14.90
2015,04,19,10,11,15.00
2015,04,19,10,12,15.10
2015,04,19,10,13,15.20
2015,04,19,10,14,15.30
2015,04,19,10,15,15.30
2015,04,19,10,16,15.30
2015,04,19,10,17,15.30
2015,04,19,10,18,15.30
2015,04,19,10,19,15.30
2015,04,19,10,20,15.40
2015,04,19,10,21,15.50
2015,04,19,10,22,15.60
2015,04,19,10,23,15.60
2015,04,19,10,24,15.70
2015,04,19,10,25,15.80
2015,04,19,10,26,15.80
2015,04,19,10,27,15.70
2015,04,19,10,28,15.70
2015,04,19,10,29,15.70
2015,04,19,10,30,15.70
2015,04,19,10,31,15.70
2015,04,19,10,32,15.70
2015,04,19,10,33,15.80
2015,04,19,10,34,15.90
2015,04,19,10,35,16.10
2015,04,19,10,36,16.20
2015,04,19,10,37,16.40
2015,04,19,10,38,16.40
2015,04,19,10,39,16.40
2015,04,19,10,40,16.40
2015,04,19,10,41,16.50
2015,04,19,10,42,16.60
2015,04,19,10,43,16.60
2015,04,19,10,44,16.70
2015,04,19,10,45,16.70
2015,04,19,10,46,16.70
2015,04,19,10,47,16.80
2015,04,19,10,48,16.80
2015,04,19,10,49,16.80
2015,04,19,10,50,16.80
2015,04,19,10,51,16.80
2015,04,19,10,52,16.80
2015,04,19,10,53,16.90
2015,04,19,10,54,16.90
2015,04,19,10,55,17.00
2015,04,19,10,56,17.00
2015,04,19,10,57,17.10
2015,04,19,10,58,17.10
2015,04,19,10,59,17.10
2015,04,19,11,00,17.10
2015,04,19,11,01,17.10
2015,04,19,11,02,17.10
2015,04,19,11,03,17.00
2015,04,19,11,04,17.00
2015,04,19,11,05,17.00
2015,04,19,11,06,17.00
2015,04,19,11,07,17.00
2015,04,19,11,08,17.10
2015,04,19,11,09,17.10
2015,04,19,11,10,17.00
2015,04,19,11,11,16.90
2015,04,19,11,12,17.00
2015,04,19,11,13,17.00
2015,04,19,11,14,17.10
2015,04,19,11,15,17.10
2015,04,19,11,16,17.00
2015,04,19,11,17,16.90
2015,04,19,11,18,16.90
2015,04,19,11,19,16.90
2015,04,19,11,20,16.90
2015,04,19,11,21,17.00
2015,04,19,11,22,17.00
2015,04,19,11,23,17.00
2015,04,19,11,24,17.00
2015,04,19,11,25,17.10
2015,04,19,11,26,17.10
2015,04,19,11,27,17.20
2015,04,19,11,28,17.20
2015,04,19,11,29,17.20
2015,04,19,11,30,17.20
2015,04,19,11,31,17.20
2015,04,19,11,32,17.30
2015,04,19,11,33,17.40
2015,04,19,11,34,17.50
2015,04,19,11,35,17.60
2015,04,19,11,36,17.60
2015,04,19,11,37,17.60
2015,04,19,11,38,17.70
2015,04,19,11,39,17.70
2015,04,19,11,40,17.70
2015,04,19,11,41,17.80
2015,04,19,11,42,17.80
2015,04,19,11,43,17.80
2015,04,19,11,44,17.80
2015,04,19,11,45,17.90
2015,04,19,11,46,17.90
2015,04,19,11,47,17.90
2015,04,19,11,48,17.90
2015,04,19,11,49,18.00
2015,04,19,11,50,18.00
2015,04,19,11,51,18.00
2015,04,19,11,52,18.10
2015,04,19,11,53,18.10
2015,04,19,11,54,18.10
2015,04,19,11,55,18.20
2015,04,19,11,56,18.20
2015,04,19,11,57,18.30
2015,04,19,11,58,18.30
2015,04,19,11,59,18.30
2015,04,19,12,00,18.30
2015,04,19,12,01,18.20
2015,04,19,12,02,18.20
2015,04,19,12,03,18.20
2015,04,19,12,04,18.20
2015,04,19,12,05,18.20
2015,04,19,12,06,18.30
2015,04,19,12,07,18.30
2015,04,19,12,08,18.40
2015,04,19,12,09,18.40
2015,04,19,12,10,18.40
2015,04,19,12,11,18.40
2015,04,19,12,12,18.40
2015,04,19,12,13,18.40
2015,04,19,12,14,18.40
2015,04,19,12,15,18.40
2015,04,19,12,16,18.40
2015,04,19,12,17,18.40
2015,04,19,12,18,18.40
2015,04,19,12,19,18.40
2015,04,19,12,20,18.50
2015,04,19,12,21,18.50
2015,04,19,12,22,18.60
2015,04,19,12,23,18.70
2015,04,19,12,24,18.70
2015,04,19,12,25,18.70
2015,04,19,12,26,18.60
2015,04,19,12,27,18.70
2015,04,19,12,28,18.70
2015,04,19,12,29,18.70
2015,04,19,12,30,18.80
2015,04,19,12,31,18.80
2015,04,19,12,32,18.90
2015,04,19,12,33,18.90
2015,04,19,12,34,18.80
2015,04,19,12,35,18.80
2015,04,19,12,36,18.70
2015,04,19,12,37,18.70
2015,04,19,12,38,18.70
2015,04,19,12,39,18.70
2015,04,19,12,40,18.60
2015,04,19,12,41,18.60
2015,04,19,12,42,18.70
2015,04,19,12,43,18.80
2015,04,19,12,44,18.80
2015,04,19,12,45,18.90
2015,04,19,12,46,18.90
2015,04,19,12,47,18.90
2015,04,19,12,48,18.90
2015,04,19,12,49,18.90
2015,04,19,12,50,18.90
2015,04,19,12,51,19.00
2015,04,19,12,52,19.00
2015,04,19,12,53,18.90
2015,04,19,12,54,18.90
2015,04,19,12,55,18.90
2015,04,19,12,56,19.00
2015,04,19,12,57,19.00
2015,04,19,12,58,19.10
2015,04,19,12,59,19.10
2015,04,19,13,00,19.20
2015,04,19,13,01,19.30
2015,04,19,13,02,19.30
2015,04,19,13,03,19.30
2015,04,19,13,04,19.40
2015,04,19,13,05,19.40
2015,04,19,13,06,19.50
2015,04,19,13,07,19.50
2015,04,19,13,08,19.60
2015,04,19,13,09,19.70
2015,04,19,13,10,19.70
2015,04,19,13,11,19.70
2015,04,19,13,12,19.70
2015,04,19,13,13,19.70
2015,04,19,13,14,19.70
2015,04,19,13,15,19.80
2015,04,19,13,16,19.80
2015,04,19,13,17,19.80
2015,04,19,13,18,19.70
2015,04,19,13,19,19.70
2015,04,19,13,20,19.70
2015,04,19,13,21,19.80
2015,04,19,13,22,19.90
2015,04,19,13,23,19.90
2015,04,19,13,24,19.90
2015,04,19,13,25,19.90
2015,04,19,13,26,19.80
2015,04,19,13,27,19.80
2015,04,19,13,28,19.70
2015,04,19,13,29,19.60
2015,04,19,13,30,19.60
2015,04,19,13,31,19.60
2015,04,19,13,32,19.60
2015,04,19,13,33,19.60
2015,04,19,13,34,19.50
2015,04,19,13,35,19.40
2015,04,19,13,36,19.40
2015,04,19,13,37,19.40
2015,04,19,13,38,19.30
2015,04,19,13,39,19.30
2015,04,19,13,40,19.30
2015,04,19,13,41,19.30
2015,04,19,13,42,19.30
2015,04,19,13,43,19.30
2015,04,19,13,44,19.40
2015,04,19,13,45,19.50
2015,04,19,13,46,19.50
2015,04,19,13,47,19.50
2015,04,19,13,48,19.50
2015,04,19,13,49,19.50
2015,04,19,13,50,19.40
2015,04,19,13,51,19.40
2015,04,19,13,52,19.40
2015,04,19,13,53,19.40
2015,04,19,13,54,19.50
2015,04,19,13,55,19.60
2015,04,19,13,56,19.60
2015,04,19,13,57,19.70
2015,04,19,13,58,19.70
2015,04,19,13,59,19.90
2015,04,19,14,00,19.90
2015,04,19,14,01,20.00
2015,04,19,14,02,20.10
2015,04,19,14,03,20.10
2015,04,19,14,04,20.10
2015,04,19,14,05,20.00
2015,04,19,14,06,20.00
2015,04,19,14,07,20.00
2015,04,19,14,08,20.00
2015,04,19,14,09,20.10
2015,04,19,14,10,20.10
2015,04,19,14,11,20.20
2015,04,19,14,12,20.20
2015,04,19,14,13,20.20
2015,04,19,14,14,20.20
2015,04,19,14,15,20.20
2015,04,19,14,16,20.20
2015,04,19,14,17,20.10
2015,04,19,14,18,20.00
2015,04,19,14,19,20.10
2015,04,19,14,20,20.10
2015,04,19,14,21,20.10
2015,04,19,14,22,20.20
2015,04,19,14,23,20.20
2015,04,19,14,24,20.20
2015,04,19,14,25,20.30
2015,04,19,14,26,20.30
2015,04,19,14,27,20.30
2015,04,19,14,28,20.40
2015,04,19,14,29,20.40
2015,04,19,14,30,20.30
2015,04,19,14,31,20.30
2015,04,19,14,32,20.20
2015,04,19,14,33,20.20
2015,04,19,14,34,20.10
2015,04,19,14,35,20.00
2015,04,19,14,36,20.00
2015,04,19,14,37,19.90
2015,04,19,14,38,19.90
2015,04,19,14,39,20.00
2015,04,19,14,40,20.00
2015,04,19,14,41,20.00
2015,04,19,14,42,20.00
2015,04,19,14,43,20.00
2015,04,19,14,44,20.00
2015,04,19,14,45,20.00
2015,04,19,14,46,19.90
2015,04,19,14,47,20.00
2015,04,19,14,48,20.00
2015,04,19,14,49,19.90
2015,04,19,14,50,19.80
2015,04,19,14,51,19.80
2015,04,19,14,52,19.80
2015,04,19,14,53,19.80
2015,04,19,14,54,19.70
2015,04,19,14,55,19.70
2015,04,19,14,56,19.70
2015,04,19,14,57,19.70
2015,04,19,14,58,19.70
2015,04,19,14,59,19.70
2015,04,19,15,00,19.70
2015,04,19,15,01,19.70
2015,04,19,15,02,19.80
2015,04,19,15,03,19.70
2015,04,19,15,04,19.80
2015,04,19,15,05,19.90
2015,04,19,15,06,19.90
2015,04,19,15,07,19.90
2015,04,19,15,08,19.90
2015,04,19,15,09,19.80
2015,04,19,15,10,19.80
2015,04,19,15,11,19.70
2015,04,19,15,12,19.70
2015,04,19,15,13,19.70
2015,04,19,15,14,19.70
2015,04,19,15,15,19.70
2015,04,19,15,16,19.70
2015,04,19,15,17,19.70
2015,04,19,15,18,19.70
2015,04,19,15,19,19.70
2015,04,19,15,20,19.60
2015,04,19,15,21,19.50
2015,04,19,15,22,19.50
2015,04,19,15,23,19.60
2015,04,19,15,24,19.60
2015,04,19,15,25,19.70
2015,04,19,15,26,19.80
2015,04,19,15,27,19.80
2015,04,19,15,28,19.70
2015,04,19,15,29,19.70
2015,04,19,15,30,19.60
2015,04,19,15,31,19.60
2015,04,19,15,32,19.50
2015,04,19,15,33,19.50
2015,04,19,15,34,19.50
2015,04,19,15,35,19.40
2015,04,19,15,36,19.30
2015,04,19,15,37,19.30
2015,04,19,15,38,19.20
2015,04,19,15,39,19.30
2015,04,19,15,40,19.40
2015,04,19,15,41,19.40
2015,04,19,15,42,19.50
2015,04,19,15,43,19.50
2015,04,19,15,44,19.60
2015,04,19,15,45,19.60
2015,04,19,15,46,19.70
2015,04,19,15,47,19.70
2015,04,19,15,48,19.70
2015,04,19,15,49,19.60
2015,04,19,15,50,19.60
2015,04,19,15,51,19.50
2015,04,19,15,52,19.30
2015,04,19,15,53,19.30
2015,04,19,15,54,19.20
2015,04,19,15,55,19.20
2015,04,19,15,56,19.20
2015,04,19,15,57,19.10
2015,04,19,15,58,19.10
2015,04,19,15,59,19.10
2015,04,19,16,00,19.10
2015,04,19,16,01,19.10
2015,04,19,16,02,19.10
2015,04,19,16,03,19.00
2015,04,19,16,04,19.00
2015,04,19,16,05,19.00
2015,04,19,16,06,19.00
2015,04,19,16,07,19.10
2015,04,19,16,08,19.10
2015,04,19,16,09,19.10
2015,04,19,16,10,19.10
2015,04,19,16,11,19.10
2015,04,19,16,12,19.10
2015,04,19,16,13,19.10
2015,04,19,16,14,19.10
2015,04,19,16,15,19.10
2015,04,19,16,16,19.10
2015,04,19,16,17,19.20
2015,04,19,16,18,19.20
2015,04,19,16,19,19.20
2015,04,19,16,20,19.20
2015,04,19,16,21,19.20
2015,04,19,16,22,19.20
2015,04,19,16,23,19.30
2015,04,19,16,24,19.40
2015,04,19,16,25,19.40
2015,04,19,16,26,19.50
2015,04,19,16,27,19.40
2015,04,19,16,28,19.30
2015,04,19,16,29,19.30
2015,04,19,16,30,19.30
2015,04,19,16,31,19.40
2015,04,19,16,32,19.50
2015,04,19,16,33,19.60
2015,04,19,16,34,19.60
2015,04,19,16,35,19.60
2015,04,19,16,36,19.60
2015,04,19,16,37,19.60
2015,04,19,16,38,19.60
2015,04,19,16,39,19.60
2015,04,19,16,40,19.60
2015,04,19,16,41,19.60
2015,04,19,16,42,19.60
2015,04,19,16,43,19.70
2015,04,19,16,44,19.70
2015,04,19,16,45,19.80
2015,04,19,16,46,19.90
2015,04,19,16,47,19.90
2015,04,19,16,48,20.00
2015,04,19,16,49,20.00
2015,04,19,16,50,20.10
2015,04,19,16,51,20.10
2015,04,19,16,52,20.20
2015,04,19,16,53,20.20
2015,04,19,16,54,20.20
2015,04,19,16,55,20.20
2015,04,19,16,56,20.10
2015,04,19,16,57,20.10
2015,04,19,16,58,20.10
2015,04,19,16,59,20.00
2015,04,19,17,00,20.00
2015,04,19,17,01,20.00
2015,04,19,17,02,20.00
2015,04,19,17,03,20.10
2015,04,19,17,04,20.10
2015,04,19,17,05,20.00
2015,04,19,17,06,20.00
2015,04,19,17,07,19.90
2015,04,19,17,08,19.90
2015,04,19,17,09,19.90
2015,04,19,17,10,19.90
2015,04,19,17,11,19.90
2015,04,19,17,12,20.00
2015,04,19,17,13,20.00
2015,04,19,17,14,20.00
2015,04,19,17,15,19.90
2015,04,19,17,16,19.90
2015,04,19,17,17,19.90
2015,04,19,17,18,19.90
2015,04,19,17,19,19.90
2015,04,19,17,20,19.90
2015,04,19,17,21,19.90
2015,04,19,17,22,19.90
2015,04,19,17,23,19.90
2015,04,19,17,24,19.90
2015,04,19,17,25,20.00
2015,04,19,17,26,20.00
2015,04,19,17,27,20.00
2015,04,19,17,28,20.00
2015,04,19,17,29,20.00
2015,04,19,17,30,20.00
2015,04,19,17,31,19.90
2015,04,19,17,32,20.00
2015,04,19,17,33,20.00
2015,04,19,17,34,20.10
2015,04,19,17,35,20.10
2015,04,19,17,36,20.10
2015,04,19,17,37,20.10
2015,04,19,17,38,20.10
2015,04,19,17,39,20.10
2015,04,19,17,40,20.20
2015,04,19,17,41,20.30
2015,04,19,17,42,20.20
2015,04,19,17,43,20.20
2015,04,19,17,44,20.20
2015,04,19,17,45,20.10
2015,04,19,17,46,20.10
2015,04,19,17,47,20.00
2015,04,19,17,48,20.00
2015,04,19,17,49,20.00
2015,04,19,17,50,20.00
2015,04,19,17,51,20.00
2015,04,19,17,52,19.90
2015,04,19,17,53,19.90
2015,04,19,17,54,19.90
2015,04,19,17,55,19.90
2015,04,19,17,56,19.90
2015,04,19,17,57,19.90
2015,04,19,17,58,19.90
2015,04,19,17,59,19.90
2015,04,19,18,00,19.90
2015,04,19,18,01,19.80
2015,04,19,18,02,19.80
2015,04,19,18,03,19.80
2015,04,19,18,04,19.80
2015,04,19,18,05,19.80
2015,04,19,18,06,19.90
2015,04,19,18,07,20.00
2015,04,19,18,08,20.00
2015,04,19,18,09,20.00
2015,04,19,18,10,20.00
2015,04,19,18,11,20.00
2015,04,19,18,12,19.90
2015,04,19,18,13,20.00
2015,04,19,18,14,20.00
2015,04,19,18,15,20.00
2015,04,19,18,16,20.00
2015,04,19,18,17,20.00
2015,04,19,18,18,20.00
2015,04,19,18,19,20.10
2015,04,19,18,20,20.10
2015,04,19,18,21,20.20
2015,04,19,18,22,20.20
2015,04,19,18,23,20.30
2015,04,19,18,24,20.20
2015,04,19,18,25,20.20
2015,04,19,18,26,20.20
2015,04,19,18,27,20.20
2015,04,19,18,28,20.20
2015,04,19,18,29,20.20
2015,04,19,18,30,20.20
2015,04,19,18,31,20.20
2015,04,19,18,32,20.20
2015,04,19,18,33,20.20
2015,04,19,18,34,20.20
2015,04,19,18,35,20.10
2015,04,19,18,36,20.00
2015,04,19,18,37,20.00
2015,04,19,18,38,19.90
2015,04,19,18,39,19.80
2015,04,19,18,40,19.70
2015,04,19,18,41,19.60
2015,04,19,18,42,19.50
2015,04,19,18,43,19.40
2015,04,19,18,44,19.40
2015,04,19,18,45,19.30
2015,04,19,18,46,19.30
2015,04,19,18,47,19.30
2015,04,19,18,48,19.30
2015,04,19,18,49,19.20
2015,04,19,18,50,19.20
2015,04,19,18,51,19.20
2015,04,19,18,52,19.20
2015,04,19,18,53,19.10
2015,04,19,18,54,19.10
2015,04,19,18,55,19.00
2015,04,19,18,56,19.00
2015,04,19,18,57,19.00
2015,04,19,18,58,19.00
2015,04,19,18,59,19.00
2015,04,19,19,00,19.00
2015,04,19,19,01,18.90
2015,04,19,19,02,18.90
2015,04,19,19,03,18.90
2015,04,19,19,04,18.90
2015,04,19,19,05,18.90
2015,04,19,19,06,18.80
2015,04,19,19,07,18.80
2015,04,19,19,08,18.70
2015,04,19,19,09,18.70
2015,04,19,19,10,18.70
2015,04,19,19,11,18.60
2015,04,19,19,12,18.50
2015,04,19,19,13,18.50
2015,04,19,19,14,18.40
2015,04,19,19,15,18.40
2015,04,19,19,16,18.30
2015,04,19,19,17,18.30
2015,04,19,19,18,18.20
2015,04,19,19,19,18.20
2015,04,19,19,20,18.10
2015,04,19,19,21,18.10
2015,04,19,19,22,18.00
2015,04,19,19,23,17.90
2015,04,19,19,24,17.90
2015,04,19,19,25,17.80
2015,04,19,19,26,17.80
2015,04,19,19,27,17.70
2015,04,19,19,28,17.70
2015,04,19,19,29,17.60
2015,04,19,19,30,17.50
2015,04,19,19,31,17.50
2015,04,19,19,32,17.40
2015,04,19,19,33,17.40
2015,04,19,19,34,17.30
2015,04,19,19,35,17.30
2015,04,19,19,36,17.30
2015,04,19,19,37,17.30
2015,04,19,19,38,17.20
2015,04,19,19,39,17.20
2015,04,19,19,40,17.20
2015,04,19,19,41,17.20
2015,04,19,19,42,17.10
2015,04,19,19,43,17.10
2015,04,19,19,44,17.00
2015,04,19,19,45,17.00
2015,04,19,19,46,16.90
2015,04,19,19,47,16.80
2015,04,19,19,48,16.80
2015,04,19,19,49,16.70
2015,04,19,19,50,16.60
2015,04,19,19,51,16.60
2015,04,19,19,52,16.50
2015,04,19,19,53,16.40
2015,04,19,19,54,16.40
2015,04,19,19,55,16.30
2015,04,19,19,56,16.20
2015,04,19,19,57,16.20
2015,04,19,19,58,16.20
2015,04,19,19,59,16.20
2015,04,19,20,00,16.20
2015,04,19,20,01,16.20
2015,04,19,20,02,16.20
2015,04,19,20,03,16.20
2015,04,19,20,04,16.20
2015,04,19,20,05,16.20
2015,04,19,20,06,16.20
2015,04,19,20,07,16.20
